Location: Unspecified
(51.0950°N, 12.9690°E)
Time: 16:05:01
(UTC+00:00)

IRAS Rocket - Pass Details

Date: 28 October 2021
Orbit: 847 x 878 km, 100.1° (Epoch: 02 December)

Event Time Altitude Azimuth Distance (km) Brightness Sun altitude
Rises 17:27:47 0° 21° (NNE) 3,453 7.2 -16.0°
Reaches altitude 10° 17:30:16 10° 27° (NNE) 2,506 6.4 -16.4°
Maximum altitude 17:35:38 48° 101° (E) 1,106 4.4 -17.2°
Drops below altitude 10° 17:40:55 10° 176° (S) 2,472 6.6 -18.0°
Sets 17:43:21 0° 182° (S) 3,401 7.4 -18.4°
